DW0835 Weather Reports


time (UTC)temp
F
wind
direction
speed
knots
gust
knots
rain 1hr
in
rain 24hr
in
rain mn
in
humidity
%
barometer
mb
20201020165532 44 0.0 1.7 0.00 0.00 0.00 82 1025.0
20201020164519 43 0.0 1.7 0.00 0.00 0.00 81 1025.0
20201020163532 43 0.0 3.5 0.00 0.00 0.00 81 1024.7
20201020162520 43 0.0 4.3 0.00 0.00 0.00 81 1025.2
20201020161538 42 338 0.9 2.6 0.00 0.00 0.00 82 1025.2
20201020160520 42 338 0.9 5.2 0.00 0.00 0.00 81 1025.5
20201020155531 42 338 0.9 4.3 0.00 0.00 0.00 81 1025.4
20201020154531 42 338 0.9 3.5 0.00 0.00 0.00 81 1025.4
20201020153518 42 0.0 1.7 0.00 0.00 0.00 81 1025.5
20201020152530 42 0.0 1.7 0.00 0.00 0.00 80 1025.6
20201020151526 42 0.0 2.6 0.00 0.00 0.00 80 1025.6
20201020150533 42 0.0 3.5 0.00 0.00 0.00 80 1025.4
20201020145530 41 338 0.9 3.5 0.00 0.00 0.00 80 1025.4
20201020144533 41 0.0 1.7 0.00 0.00 0.00 81 1025.4
20201020143530 41 0.0 1.7 0.00 0.00 0.00 81 1025.6
20201020142530 40 0.0 2.6 0.00 0.00 0.00 82 1025.4
20201020141534 39 0.0 2.6 0.00 0.00 0.00 82 1025.4
20201020140522 39 0.0 2.6 0.00 0.00 0.00 81 1025.4
20201020135529 38 0.0 3.5 0.00 0.00 0.00 80 1025.3
20201020134529 38 0.0 2.6 0.00 0.00 0.00 79 1025.3
20201020133533 38 0.0 1.7 0.00 0.00 0.00 79 1025.4
20201020132531 38 0.0 0.9 0.00 0.00 0.00 79 1025.4
20201020131521 38 0.0 2.6 0.00 0.00 0.00 77 1025.4
20201020130521 38 0.0 2.6 0.00 0.00 0.00 77 1025.5
20201020125530 38 0.0 0.0 0.00 0.00 0.00 76 1025.1
20201020124520 38 0.0 0.0 0.00 0.00 0.00 75 1025.1
20201020123530 38 0.0 0.0 0.00 0.00 0.00 74 1025.0
20201020122520 38 0.0 2.6 0.00 0.00 0.00 74 1025.0
20201020121533 39 0.0 3.5 0.00 0.00 0.00 75 1025.0
20201020120521 39 0.0 2.6 0.00 0.00 0.00 74 1024.6
20201020115522 39 0.0 1.7 0.00 0.00 0.00 73 1024.5
20201020114529 38 0.0 2.6 0.00 0.00 0.00 72 1024.5
20201020113535 38 0.0 3.5 0.00 0.00 0.00 71 1024.5
20201020112518 38 0.0 2.6 0.00 0.00 0.00 70 1024.7
20201020111520 38 338 0.9 3.5 0.00 0.00 0.00 69 1024.7
20201020110529 38 338 0.9 3.5 0.00 0.00 0.00 68 1024.4
20201020105517 38 338 0.9 3.5 0.00 0.00 0.00 68 1024.4
20201020104518 38 338 0.9 2.6 0.00 0.00 0.00 69 1024.4
20201020103530 37 0.0 2.6 0.00 0.00 0.00 70 1024.1
20201020102529 37 338 0.9 4.3 0.00 0.00 0.00 70 1024.1
20201020101518 37 338 0.9 4.3 0.00 0.00 0.00 68 1024.1
20201020100518 37 338 0.9 2.6 0.00 0.00 0.00 66 1024.1
20201020095529 37 0.0 2.6 0.00 0.00 0.00 65 1024.3
20201020094529 37 338 0.9 3.5 0.00 0.00 0.00 65 1024.4
20201020093520 37 0.0 2.6 0.00 0.00 0.00 65 1024.3
20201020092537 37 338 0.9 3.5 0.00 0.00 0.00 63 1024.1
20201020091519 37 315 0.9 2.6 0.00 0.00 0.00 63 1024.1
20201020090530 37 0.0 2.6 0.00 0.00 0.00 61 1024.4
20201020085526 38 0 0.9 3.5 0.00 0.00 0.00 59 1024.3
20201020084518 38 0.0 2.6 0.00 0.00 0.00 60 1024.4
20201020083527 38 0.0 2.6 0.00 0.00 0.00 61 1024.0
20201020082529 38 338 0.9 3.5 0.00 0.00 0.00 61 1023.8
20201020081529 38 338 0.9 3.5 0.00 0.00 0.00 61 1023.8
20201020080523 38 0.0 2.6 0.00 0.00 0.00 62 1024.0
20201020075529 38 0.0 1.7 0.00 0.00 0.00 62 1024.0
20201020074529 38 338 0.9 4.3 0.00 0.00 0.00 61 1024.0
20201020073529 38 0.0 4.3 0.00 0.00 0.00 61 1024.0
20201020072528 38 0.0 1.7 0.00 0.00 0.00 62 1024.0
20201020071533 38 0.0 1.7 0.00 0.00 0.00 63 1024.0
20201020070530 38 0.0 0.9 0.00 0.00 0.00 63 1023.6
20201020065529 38 0.0 1.7 0.00 0.00 0.00 63 1023.5
20201020064529 38 0.0 1.7 0.00 0.00 0.00 63 1023.5
20201020063517 38 0.0 0.0 0.00 0.00 0.00 63 1023.7
20201020062531 38 0.0 1.7 0.00 0.00 0.00 63 1023.5
20201020061536 38 338 0.9 2.6 0.00 0.00 0.00 63 1023.5
20201020060517 38 0.0 0.9 0.00 0.00 0.00 63 1023.6
20201020055533 38 338 0.9 4.3 0.00 0.00 0.00 63 1023.9
20201020054525 38 0.0 2.6 0.00 0.00 0.00 64 1023.9
20201020053533 38 338 0.9 2.6 0.00 0.00 0.00 64 1023.9
20201020052531 38 338 0.9 4.3 0.00 0.00 0.00 64 1023.5
20201020051529 38 0.0 1.7 0.00 0.00 0.00 63 1023.5
20201020050523 38 0.0 1.7 0.00 0.00 0.00 64 1023.5
20201020045518 38 0.0 0.9 0.00 0.00 0.00 64 1023.5
20201020044536 39 338 0.9 4.3 0.00 0.00 0.00 63 1023.5
20201020043522 39 0.0 2.6 0.00 0.00 0.00 65 1023.5
20201020042532 39 0.0 0.9 0.00 0.00 0.00 65 1023.5
20201020041519 39 0.0 0.9 0.00 0.00 0.00 65 1023.5
20201020040518 39 0.0 1.7 0.00 0.00 0.00 66 1023.4
20201020035530 39 0.0 0.9 0.00 0.00 0.00 67 1022.8
20201020034519 39 0.0 2.6 0.00 0.00 0.00 67 1022.8
20201020033529 39 0.0 0.9 0.00 0.00 0.00 67 1023.0
20201020032517 39 0.0 0.0 0.00 0.00 0.00 67 1023.4
20201020031535 39 0.0 0.9 0.00 0.00 0.00 67 1023.4
20201020030518 39 0.0 1.7 0.00 0.00 0.00 67 1023.4
20201020025519 39 0.0 0.0 0.00 0.00 0.00 69 1023.4
20201020024530 39 0.0 0.9 0.00 0.00 0.00 69 1023.4
20201020023529 39 0.0 0.0 0.00 0.00 0.00 70 1023.6
20201020022521 39 0.0 0.0 0.00 0.00 0.00 70 1023.6
20201020021518 39 0.0 0.0 0.00 0.00 0.00 70 1023.5
20201020020529 39 0.0 0.0 0.00 0.00 0.00 71 1023.3
20201020015518 39 0.0 0.9 0.00 0.00 0.00 71 1023.4
20201020014530 39 0.0 0.0 0.00 0.00 0.00 71 1023.4
20201020013529 39 0.0 0.0 0.00 0.00 0.00 71 1023.4
20201020012531 39 0.0 1.7 0.00 0.00 0.00 72 1023.3
20201020011531 39 0.0 0.0 0.00 0.00 0.00 72 1023.3
20201020010521 39 0.0 2.6 0.00 0.00 0.00 72 1023.4
20201020005522 39 338 1.7 3.5 0.00 0.00 0.00 71 1023.2
20201020004527 39 0.0 0.9 0.00 0.00 0.00 69 1023.2
20201020003528 39 0.0 2.6 0.00 0.00 0.00 70 1023.3
20201020002530 39 0.0 0.0 0.00 0.00 0.00 70 1023.2
20201020001525 39 0.0 0.9 0.00 0.00 0.00 70 1023.2
20201020000531 39 0.0 2.6 0.00 0.00 0.00 70 1022.9
20201019235519 39 0.0 0.0 0.00 0.00 0.00 70 1023.2
20201019234520 39 0.0 0.0 0.00 0.00 0.00 70 1023.2
20201019233531 39 0.0 0.9 0.00 0.00 0.00 70 1023.1
20201019232520 39 0.0 0.0 0.00 0.00 0.00 69 1023.3
20201019231520 39 0.0 2.6 0.00 0.00 0.00 68 1023.3
20201019230527 39 0.0 0.9 0.00 0.00 0.00 69 1023.2
20201019225529 39 0.0 3.5 0.00 0.00 0.00 69 1023.3
20201019224524 39 0.0 1.7 0.00 0.00 0.00 69 1023.3
20201019223520 39 0.0 1.7 0.00 0.00 0.00 69 1023.3
20201019222530 40 0.0 0.9 0.00 0.00 0.00 68 1023.3
20201019221533 40 0.0 2.6 0.00 0.00 0.00 66 1023.3
20201019220530 40 0.0 1.7 0.00 0.00 0.00 63 1023.0
20201019215520 40 0.0 0.9 0.00 0.00 0.00 63 1022.8
20201019214530 41 0.0 2.6 0.00 0.00 0.00 63 1022.9
20201019213532 41 338 0.9 3.5 0.00 0.00 0.00 63 1022.9
20201019212532 41 0.0 1.7 0.00 0.00 0.00 64 1022.9
20201019211530 40 0.0 0.9 0.00 0.00 0.00 64 1022.9
20201019210531 40 0.0 2.6 0.00 0.00 0.00 64 1023.2
20201019205519 40 0.0 2.6 0.00 0.00 0.00 64 1023.5
20201019204518 40 0.0 3.5 0.00 0.00 0.00 63 1023.5
20201019203519 40 0.0 2.6 0.00 0.00 0.00 64 1023.9
20201019202528 40 0.0 1.7 0.00 0.00 0.00 64 1024.3
20201019201527 40 0.0 0.9 0.00 0.00 0.00 64 1024.3
20201019200530 40 0.0 0.0 0.00 0.00 0.00 64 1024.3
20201019195530 40 0.0 2.6 0.00 0.00 0.00 64 1024.0
20201019194518 40 0.0 2.6 0.00 0.00 0.00 65 1024.0
20201019193519 40 338 0.9 3.5 0.00 0.00 0.00 63 1024.0
20201019192528 40 338 0.9 4.3 0.00 0.00 0.00 64 1024.2
20201019191535 40 338 1.7 4.3 0.00 0.00 0.00 64 1024.2
20201019190535 40 0.0 2.6 0.00 0.00 0.00 64 1024.3
20201019185524 41 338 0.9 5.2 0.00 0.00 0.00 63 1023.9
20201019184531 41 0.0 2.6 0.00 0.00 0.00 62 1023.9
20201019183519 42 338 0.9 5.2 0.00 0.00 0.00 61 1023.7
20201019182530 42 338 0.9 3.5 0.00 0.00 0.00 62 1023.5
20201019181530 41 315 0.9 4.3 0.00 0.00 0.00 62 1023.5
20201019180531 41 338 0.9 6.1 0.00 0.00 0.00 62 1023.5
20201019175535 41 338 0.9 7.0 0.00 0.00 0.00 62 1023.4
20201019174530 41 338 0.9 4.3 0.00 0.00 0.00 61 1023.4
20201019173521 41 338 0.9 5.2 0.00 0.00 0.00 62 1023.6
20201019172519 41 338 0.9 4.3 0.00 0.00 0.00 62 1023.6
20201019171530 40 0 0.9 4.3 0.00 0.00 0.00 63 1023.6
20201019170531 40 338 1.7 4.3 0.00 0.00 0.00 60 1023.7